GW4477 Weather Reports


time (UTC)temp
C
wind
direction
speed
KPH
gust
KPH
rain 1hr
cm
rain 24hr
cm
rain mn
cm
humidity
%
barometer
mb
20260502203006 22 237 4.8 12.9 0.00 0.00 0.00 31 1020.8
20260502201511 21 209 3.2 17.7 0.00 0.00 0.00 33 1020.9
20260502200006 21 250 3.2 12.9 0.00 0.00 0.00 30 1021.2
20260502194511 20 232 4.8 9.7 0.00 0.00 0.00 34 1021.4
20260502193029 20 200 3.2 11.3 0.00 0.00 0.00 36 1021.7
20260502191504 20 345 3.2 8.0 0.00 0.00 0.00 36 1021.9
20260502190013 19 211 3.2 14.5 0.00 0.00 0.00 38 1022.1
20260502184511 18 143 1.6 16.1 0.00 0.00 0.00 40 1022.2
20260502183016 18 142 6.4 12.9 0.00 0.00 0.00 40 1022.3
20260502181517 18 178 8.0 19.3 0.00 0.00 0.00 42 1022.5
20260502163012 15 175 9.7 19.3 0.00 0.00 0.00 50 1023.2
20260502161514 15 116 8.0 16.1 0.00 0.00 0.00 51 1023.4
20260502151514 12 114 9.7 14.5 0.00 0.00 0.00 59 1023.3
20260502123012 4 85 1.6 4.8 0.00 0.00 0.00 88 1022.2
20260502121508 3 47 0.0 3.2 0.00 0.00 0.00 88 1022.1
20260502114528 3 34 1.6 3.2 0.00 0.00 0.00 87 1022.0
20260502113005 2 80 0.0 3.2 0.00 0.00 0.00 87 1021.6
20260502111506 2 26 1.6 3.2 0.00 0.00 0.00 86 1021.7
20260502110014 2 26 0.0 3.2 0.00 0.00 0.00 86 1021.3
20260502104521 3 26 0.0 0.0 0.00 0.00 0.00 86 1021.2
20260502103021 3 26 0.0 3.2 0.00 0.00 0.00 86 1021.3
20260502101505 3 26 1.6 3.2 0.00 0.00 0.00 86 1021.3
20260502091523 3 133 0.0 3.2 0.00 0.00 0.00 84 1020.5
20260502071519 5 334 0.0 3.2 0.00 0.00 0.00 78 1020.6
20260502070026 5 325 0.0 3.2 0.00 0.00 0.00 77 1020.5
20260502064541 6 325 0.0 3.2 0.00 0.00 0.00 75 1020.7
20260502063019 6 306 0.0 3.2 0.00 0.00 0.00 74 1020.5
20260502061503 6 297 0.0 3.2 0.00 0.00 0.00 71 1020.6
20260502060043 7 252 0.0 3.2 0.00 0.00 0.00 69 1020.6
20260502054507 8 258 0.0 3.2 0.00 0.00 0.00 70 1020.4
20260502053004 8 254 0.0 3.2 0.00 0.00 0.00 67 1020.4
20260502051505 8 247 0.0 3.2 0.00 0.00 0.00 66 1020.2
20260502050004 9 252 0.0 3.2 0.00 0.00 0.00 64 1020.2
20260502044506 10 262 0.0 4.8 0.00 0.00 0.00 62 1020.3
20260502043004 10 267 0.0 3.2 0.00 0.00 0.00 60 1020.4
20260502041508 11 342 0.0 6.4 0.00 0.00 0.00 59 1020.5
20260502040004 10 275 3.2 11.3 0.00 0.00 0.00 62 1020.4
20260502034504 10 236 0.0 3.2 0.00 0.00 0.00 63 1019.7
20260502033006 10 225 0.0 4.8 0.00 0.00 0.00 61 1019.4
20260502031504 11 229 1.6 3.2 0.00 0.00 0.00 58 1019.4
20260502030008 11 244 1.6 3.2 0.00 0.00 0.00 56 1019.3
20260502024513 12 225 0.0 4.8 0.00 0.00 0.00 55 1019.2
20260502023006 12 221 1.6 3.2 0.00 0.00 0.00 52 1018.9
20260502021509 13 233 0.0 3.2 0.00 0.00 0.00 51 1018.8
20260502020014 13 244 1.6 3.2 0.00 0.00 0.00 48 1018.6
20260502014511 14 230 0.0 3.2 0.00 0.00 0.00 46 1018.5
20260502013006 15 215 0.0 4.8 0.00 0.00 0.00 45 1018.4
20260502011508 15 215 0.0 4.8 0.00 0.00 0.00 45 1018.3
20260502010024 16 208 1.6 6.4 0.00 0.00 0.00 42 1018.3
20260502004524 16 257 1.6 6.4 0.00 0.00 0.00 39 1018.3
20260502003002 16 280 0.0 3.2 0.00 0.00 0.00 38 1018.4
20260502001505 16 285 0.0 6.4 0.00 0.00 0.00 37 1018.3
20260502000008 17 329 3.2 9.7 0.00 0.00 0.00 36 1018.4
20260501234514 17 306 0.0 3.2 0.00 0.00 0.00 36 1018.4
20260501233016 18 302 1.6 6.4 0.00 0.00 0.00 34 1018.3
20260501231503 18 324 0.0 12.9 0.00 0.00 0.00 33 1018.2
20260501230023 20 338 1.6 11.3 0.00 0.00 0.00 32 1018.3
20260501224514 19 318 1.6 11.3 0.00 0.00 0.00 33 1018.3
20260501223017 20 289 1.6 11.3 0.00 0.00 0.00 31 1018.3
20260501221517 20 310 3.2 9.7 0.00 0.00 0.00 33 1018.2
20260501220009 18 325 3.2 12.9 0.00 0.00 0.00 33 1018.4
20260501214513 18 304 0.0 8.0 0.00 0.00 0.00 35 1018.6
20260501213018 18 257 0.0 12.9 0.00 0.00 0.00 36 1018.7
20260501211518 17 246 3.2 12.9 0.00 0.00 0.00 38 1018.9
20260501210022 17 254 0.0 9.7 0.00 0.00 0.00 38 1019.2
20260501204527 18 291 0.0 12.9 0.00 0.00 0.00 35 1019.6